This demonstration page uses our WeatherBlox Daily Observations layout. Learn more.

Left ArrowRight Arrow

31.84235, -102.49876

Hourly Observations for May 13, 2015

Temp ( °F °C ) Dew Point ( °F °C ) Humidity (%) Winds ( mph kmh ) Pressure ( in mb ) Visibility ( mi km ) Precip ( " mm )
12:53 am 00:53 Cloudy 62 16.7 57 13.9 84 84 ESE 18 30 30.02 1017 10 16 0.00 0.00
1:46 am 01:46 Cloudy with Light Rain 61 16.1 58 14.4 90 90 ESE 20 31 30.03 1017 5 8 0.01 0.25
1:53 am 01:53 Cloudy with Light Rain 61 16.1 58 14.4 90 90 ESE 16 26 29.99 1016 3 5 0.01 0.25
2:08 am 02:08 Cloudy with Rain 60 15.6 58 14.4 93 93 ESE 15 24 30.03 1017 3 4 0.07 1.78
2:15 am 02:15 Cloudy with Light Rain 61 16.1 58 14.4 90 90 ESE 12 19 30.00 1016 3 5 0.07 1.78
2:53 am 02:53 Cloudy with Rain 61 16.1 58 14.4 90 90 ESE 16 26 29.97 1015 5 8 0.14 3.56
3:53 am 03:53 Cloudy with Light Rain 61 16.1 58 14.4 90 90 SE 14 22 29.93 1014 8 13 0.03 0.76
4:30 am 04:30 Cloudy with Light Rain 61 16.1 59 15 93 93 SE 15 24 29.94 1014 9 14 0.01 0.25
4:53 am 04:53 Cloudy with Light Rain 61 16.1 59 15 93 93 SE 18 30 29.89 1012 8 13 0.01 0.25
5:30 am 05:30 Cloudy with Rain 61 16.1 59 15 93 93 SE 23 37 29.94 1014 2 3 0.12 3.05
5:38 am 05:38 Cloudy with Strong Thunderstorms 61 16.1 59 15 93 93 SE 25 41 29.88 1012 1 2 0.24 6.10
5:42 am 05:42 Cloudy with Thunderstorms 61 16.1 58 14.4 90 90 SSE 24 39 29.88 1012 2 3 0.24 6.10
5:45 am 05:45 Windy with Storms Likely 62 16.7 56 13.3 80 80 SSE 21 33 29.88 1012 4 6 0.24 6.10
5:53 am 05:53 Cloudy with Rain 63 17.2 56 13.3 78 78 S 16 26 29.88 1012 8 13 0.25 6.35
6:53 am 06:53 Partly Cloudy 60 15.6 55 12.8 84 84 SSW 14 22 29.91 1013 10 16 0.07 1.78
7:30 am 07:30 Mostly Cloudy 60 15.6 56 13.3 86 86 SSW 12 19 29.94 1014 10 16 0.00 0.00
7:53 am 07:53 Cloudy 61 16.1 58 14.4 90 90 S 13 20 29.91 1013 10 16 0.00 0.00
8:30 am 08:30 Cloudy with Light Rain 63 17.2 60 15.6 90 90 SSW 12 19 29.94 1014 8 13 0.05 1.27
8:51 am 08:51 Mostly Cloudy 63 17 61 16 94 94 WSW 10 17 29.94 1014 10 16 0.05 1.27
8:53 am 08:53 Partly Cloudy 63 17.2 60 15.6 90 90 WSW 9 15 29.95 1014 10 16 0.05 1.27
9:53 am 09:53 Sunny 65 18.3 60 15.6 84 84 SW 12 19 29.94 1014 10 16 0.00 0.00
10:53 am 10:53 Sunny 66 18.9 59 15 78 78 SW 14 22 29.96 1014 10 16 0.00 0.00
11:53 am 11:53 Partly Cloudy 71 21.7 58 14.4 63 63 WSW 12 19 29.94 1014 10 16 0.00 0.00
12:53 pm 12:53 Partly Cloudy 75 23.9 52 11.1 45 45 W 21 33 29.92 1013 10 16 0.00 0.00
1:53 pm 13:53 Mostly Cloudy 75 23.9 49 9.4 40 40 W 17 28 29.91 1013 10 16 0.00 0.00
2:53 pm 14:53 Partly Cloudy 77 25 49 9.4 37 37 W 20 31 29.89 1012 10 16 0.00 0.00
3:53 pm 15:53 Partly Cloudy 78 25.6 47 8.3 33 33 W 18 30 29.88 1012 10 16 0.00 0.00
4:53 pm 16:53 Mostly Sunny 78 25.6 47 8.3 33 33 W 17 28 29.86 1011 10 16 0.00 0.00
5:53 pm 17:53 Sunny 78 25.6 47 8.3 33 33 W 18 30 29.85 1011 10 16 0.00 0.00
6:53 pm 18:53 Sunny 78 25.6 47 8.3 33 33 W 16 26 29.86 1011 10 16 0.00 0.00
7:53 pm 19:53 Sunny 76 24.4 47 8.3 36 36 W 8 13 29.86 1011 10 16 0.00 0.00
8:53 pm 20:53 Clear 71 21.7 49 9.4 46 46 WSW 7 11 29.89 1012 10 16 0.00 0.00
9:53 pm 21:53 Clear 67 19.4 49 9.4 53 53 S 5 7 29.91 1013 10 16 0.00 0.00
10:53 pm 22:53 Clear 67 19.4 49 9.4 53 53 Calm 29.92 1013 10 16 0.00 0.00
11:53 pm 23:53 Clear 65 18.3 61 16.1 87 87 S 13 20 29.95 1014 9 14 0.00 0.00

Powered by AerisWeather